{"data":{"norad_id":59242,"intl_designator":"2024-049M","name":"STARLINK-31423","alt_names":[],"object_type":"PAYLOAD","status":"ACTIVE","operator":null,"country":"US","launch_date":"2024-03-16","launch_site_code":"AFETR","launch_vehicle":null,"mission":null,"orbit_class":"UNKNOWN","rcs_meters":null,"size_class":null,"mass_kg":null,"dimensions":null,"purposes":["comms"],"wikipedia_slug":null,"has_3d_model":false,"image_url":null,"decayed_at":null,"tle_current":{"epoch":"2026-05-25T04:41:04.028064Z","epoch_age_seconds":61461,"freshness":"FRESH","line1":"1 59242U 24049M   26145.19518551 -.00003749  00000+0 -12666-3 0  9992","line2":"2 59242  43.0037  71.7246 0001151 269.7997  90.2723 15.27606444124105","mean_motion":15.27606444,"eccentricity":0.0001151,"inclination_deg":43.0037,"raan_deg":71.7246,"arg_perigee_deg":269.7997,"mean_anomaly_deg":90.2723,"bstar":-0.00012666,"rev_number":12410,"period_min":94.265116886349,"perigee_km":482.1802009269,"apogee_km":483.75962773858,"semimajor_km":6861.1069143327,"source":"CELESTRAK","updated_at":"2026-05-25T13:38:18.871412Z"}}}